User: anonymous   Login
Location: Seminole
(32.7190°N, 102.6440°W)
Time: 04:00:10
(UTC-05:00)
Language:

Meteor 2-10 - Orbit

View from above orbital plane
View from above orbital plane
View from above satellite
View from above satellite

Ground track
Ground track

The orbit data is extracted from the following two-line orbital elements,

1 14452U 83109A   14304.08867574  .00000206  00000-0  77857-4 0  6391
2 14452 081.1611 325.3066 0089632 285.8046 073.3264 14.26270488612154
Epoch (UTC): 31 October 2014 02:07:41
Eccentricity: 0.0089632
inclination: 81.1611°
perigee height: 740 km
apogee height: 868 km
right ascension of ascending node: 325.3066°
argument of perigee: 285.8046°
revolutions per day: 14.26270488
mean anomaly at epoch: 73.3264°
orbit number at epoch: 61215

The dashed part of the orbit path shows where the satellite is in the earth's shadow,  

DLR